Seneffe, Belgium
Current Conditions -  °F | °C
As of 9:20 PM on Saturday 25 Oct 2014 (Local Time) from EBCI Reporting Station
Scattered Clouds Scattered Clouds  
Wind Chill: 11°   Ceiling: Unl
Heat Index: 11°   Visibility: 6mi
Dew Point: 10°   Wind: 6mph
Humidity: 94%   Direction: 180°S
Pressure: 30.18"   Gusts: NA
Location:  50.53°N, 4.26°E
Report Text: EBCI 251920Z 18005KT 9999 FEW026 SCT039 11/10 Q1022 NOSIG
Loading
Personal Weather Stations






























Interactive Weather Map
Tropical Storm Tracking
New forecast layout! Learn more

10-Day Weather Forecast

Advertisements
Track Severe Weather on mobile